Wind_Speed
22 22 22 21 21 21 21 20 19 19 18 18 18 17 17 17 17 17 17 17 17 16 16 16 17 18 16 15 16 18 17 17 16 16 16 17 17 18 18 18 19 18 20 26 26 24 26 27 29 32 31 31 33 33 33 32 30 29 29 28 28 29 28
23 23 22 22 22 21 21 21 20 20 20 19 19 19 19 19 18 19 19 19 19 18 17 18 19 19 18 17 18 18 18 17 16 16 18 18 18 19 20 19 21 21 20 24 25 23 24 25 25 29 30 30 32 33 33 32 31 30 28 28 29 29 30
23 22 22 22 22 21 22 22 21 21 21 20 20 20 20 20 20 20 21 21 21 19 19 19 20 20 19 18 19 19 19 18 18 17 18 19 19 20 20 19 21 23 21 23 26 23 21 22 24 28 31 31 31 31 31 30 30 29 28 28 29 29 31
23 22 22 22 22 22 22 22 22 22 21 21 20 20 20 20 20 22 22 22 22 21 21 21 21 21 20 19 20 21 20 19 19 19 19 20 19 19 20 20 20 23 24 24 27 25 22 23 26 29 30 31 31 30 29 29 29 29 28 29 30 31 31
24 23 23 23 23 22 22 22 22 22 21 21 21 21 21 21 22 22 23 23 22 22 22 22 22 22 21 20 21 22 22 20 19 19 19 20 21 20 20 20 20 23 25 26 29 30 27 24 26 29 29 29 29 29 29 29 28 27 27 29 32 34 32
24 24 23 23 23 22 22 22 21 21 21 20 21 21 21 22 22 23 23 23 23 23 23 23 23 23 22 21 22 23 22 21 19 19 20 21 21 20 19 21 21 22 24 27 29 30 30 27 25 27 29 27 25 26 28 29 28 26 25 27 33 37 34
24 23 23 23 22 22 22 21 21 21 21 21 21 21 22 22 22 23 23 24 24 24 24 24 24 24 23 23 23 23 21 20 20 20 21 21 20 19 19 21 22 23 24 27 28 28 28 28 26 25 27 27 25 24 24 24 24 26 28 29 33 36 35
23 23 22 22 22 22 21 21 22 22 21 21 22 21 22 22 22 23 23 24 25 24 24 25 25 25 25 24 23 22 21 20 20 20 21 21 19 18 20 21 23 24 25 26 27 27 27 27 26 26 26 25 22 21 20 19 21 25 30 32 33 35 34
22 23 23 23 22 22 22 22 22 22 22 21 21 21 21 21 22 23 24 24 25 25 25 26 26 26 25 24 23 22 21 20 19 19 21 20 19 19 20 22 23 25 25 25 25 25 25 24 24 24 24 22 20 19 21 23 25 27 29 30 33 36 33
23 24 24 23 23 22 23 23 23 22 21 21 20 20 20 21 22 23 24 24 25 25 26 26 27 27 26 24 23 21 20 20 19 20 21 20 20 20 21 23 24 25 25 24 24 24 22 22 23 23 23 23 23 23 24 25 26 27 28 27 27 32 31
25 24 24 23 23 23 23 23 22 21 20 20 19 20 20 21 21 22 23 24 24 25 26 27 27 27 26 24 22 21 21 21 20 20 21 21 21 21 22 24 26 27 26 24 24 24 22 22 25 26 25 26 26 25 24 25 25 26 26 23 19 21 25
25 25 24 23 23 23 23 23 22 20 19 19 18 17 19 20 21 22 23 24 24 25 26 27 26 25 25 24 23 22 23 23 22 21 21 22 23 23 24 25 26 27 26 24 25 26 25 26 30 30 29 28 26 23 24 26 27 26 26 24 20 19 23
25 25 24 23 23 23 23 22 21 20 19 19 18 16 17 19 21 23 24 24 24 24 25 26 26 26 26 26 24 23 23 23 23 22 21 22 23 25 25 26 28 30 31 30 30 32 32 31 32 32 30 28 26 26 27 27 28 28 26 25 23 23 28
26 25 24 23 22 22 22 22 22 20 19 19 19 17 17 19 21 23 24 25 25 25 26 27 27 28 28 25 22 22 21 21 23 24 25 26 28 30 31 32 34 36 36 36 35 37 37 34 33 34 33 32 29 28 28 28 29 29 26 25 26 28 33
25 24 23 22 22 22 22 22 21 20 19 19 18 16 16 18 21 22 24 25 26 26 27 27 26 26 27 26 26 26 25 26 27 29 31 32 33 34 34 34 35 34 34 35 35 36 37 36 34 33 32 29 27 26 29 30 30 28 26 27 28 29 32
24 23 23 22 21 22 23 23 22 21 20 19 18 16 16 19 21 23 24 26 28 29 29 30 30 30 30 31 32 31 30 29 29 29 31 32 32 32 32 33 33 32 32 32 31 32 33 32 30 29 28 27 25 26 26 26 25 24 24 25 26 27 29
24 23 22 21 21 22 23 23 22 21 20 19 18 17 17 20 21 22 25 27 28 29 30 32 32 31 31 32 32 31 28 26 25 26 28 30 31 31 32 34 33 33 31 29 28 28 29 30 29 28 27 27 26 24 22 21 21 22 23 23 20 19 23
23 22 22 22 22 22 22 23 23 22 21 20 18 17 18 20 21 22 25 27 27 28 30 31 32 30 29 30 29 27 25 22 22 25 26 28 30 31 33 34 33 32 32 31 30 30 30 30 30 29 29 29 29 29 28 28 27 25 24 23 20 20 23
21 21 22 22 21 21 22 23 23 23 22 21 19 18 18 19 20 23 25 26 27 28 30 31 31 29 27 27 26 24 23 21 21 24 26 27 28 30 32 32 31 31 32 32 32 33 32 31 30 29 29 30 31 31 32 33 33 30 27 26 25 24 21
21 21 22 21 21 22 23 24 24 24 23 22 20 19 19 19 21 24 26 26 26 27 30 31 31 29 27 26 25 24 23 21 21 24 26 27 28 31 32 31 30 31 32 32 32 31 31 30 30 30 31 32 33 33 33 33 32 31 30 28 28 26 20
21 21 22 21 22 23 24 25 25 24 23 23 22 21 20 21 23 25 26 26 26 28 31 32 31 30 27 24 23 22 21 21 21 23 25 27 29 30 29 28 27 27 27 27 29 29 30 31 31 31 32 32 33 33 32 30 29 29 29 29 29 28 25
21 21 21 22 23 25 26 26 26 24 23 23 23 21 20 21 23 23 23 25 26 28 30 31 30 29 26 23 22 22 21 21 21 21 24 27 27 26 26 26 26 27 27 28 30 31 32 33 32 31 31 32 32 31 30 28 28 27 26 26 27 29 29
21 20 21 23 24 26 27 26 26 24 23 22 22 21 20 20 20 20 21 23 26 28 28 29 28 27 24 22 22 23 22 22 22 23 26 27 25 25 26 28 29 30 31 32 33 32 33 33 32 30 30 30 30 30 29 28 27 25 23 23 24 26 29
20 20 20 23 25 26 27 26 25 24 23 22 21 20 19 19 19 18 19 22 25 26 27 27 26 24 23 23 23 24 25 25 25 26 27 26 25 26 26 27 28 29 29 30 31 31 32 33 32 30 29 30 30 29 29 28 27 26 24 23 24 25 26
20 20 20 22 25 27 27 26 25 25 24 22 21 19 19 19 18 17 18 20 23 24 25 25 24 24 24 25 26 26 27 28 29 28 28 28 27 27 27 28 29 30 29 29 30 31 32 33 33 31 30 30 30 29 29 29 28 27 25 24 25 26 27
20 20 20 22 24 26 27 26 26 26 25 23 21 19 19 18 17 16 16 19 21 22 23 23 24 24 26 27 27 28 28 30 30 29 28 27 27 27 28 29 31 31 30 30 30 30 31 33 33 31 30 31 30 29 30 29 27 27 27 25 26 27 29
20 20 21 23 24 25 25 26 27 27 26 24 21 19 17 16 16 16 17 19 21 22 22 23 24 25 26 27 27 27 28 29 29 28 28 27 27 27 29 30 30 31 31 30 30 30 31 32 32 31 31 30 30 30 30 29 26 26 26 25 25 26 28
21 22 23 23 23 23 24 26 27 28 26 22 19 17 17 18 19 19 20 21 22 21 22 23 24 25 25 25 26 26 27 28 28 28 28 28 28 28 29 30 30 30 30 30 30 30 31 31 31 31 31 30 29 29 29 27 26 26 26 25 24 24 24
21 22 23 24 24 23 23 26 28 27 24 22 20 20 21 22 22 22 22 22 21 20 21 22 23 24 24 23 24 25 25 26 26 26 27 27 27 27 28 28 29 30 30 29 29 29 29 29 29 30 29 28 28 29 28 26 25 25 25 24 23 24 24
22 22 22 24 26 25 26 28 28 26 25 24 24 24 24 23 22 21 21 21 20 20 22 23 24 24 23 23 23 24 24 25 25 25 26 26 26 26 27 27 28 28 28 27 27 28 28 28 28 28 28 27 28 28 27 26 25 25 24 23 22 23 24
22 21 22 24 26 27 27 28 27 25 24 25 25 24 23 22 20 20 19 19 19 20 23 24 25 25 24 23 24 24 25 26 25 25 26 26 26 26 26 27 27 26 25 25 26 26 27 27 27 27 27 27 27 27 26 25 25 24 23 23 23 23 24
20 21 22 23 24 25 26 26 25 24 24 24 24 24 23 21 19 19 20 19 19 22 25 25 25 25 24 23 24 25 25 26 26 26 26 26 26 27 26 26 26 25 24 24 25 25 26 26 26 27 27 27 27 26 25 24 24 23 23 24 24 24 24
19 21 21 21 22 23 24 25 24 24 24 24 24 25 24 23 22 22 22 21 22 25 26 26 25 27 26 25 25 26 26 26 26 27 27 27 27 28 28 27 25 24 23 24 24 25 26 26 26 25 26 25 25 25 24 24 23 23 23 22 22 22 23
19 20 20 20 20 21 21 22 22 22 23 23 24 25 24 23 23 24 23 22 22 25 26 26 25 27 27 26 26 26 26 26 27 27 27 28 28 28 28 27 25 24 24 24 24 24 25 25 25 25 25 24 24 23 23 23 23 22 22 21 21 22 21
21 21 20 21 20 20 20 21 20 20 20 20 20 20 19 19 21 23 23 23 24 26 27 27 27 28 28 26 26 26 26 26 27 27 27 27 28 28 27 26 25 25 25 25 24 25 25 25 25 25 25 25 24 23 23 23 22 22 22 22 22 22 21
24 23 22 21 21 21 20 19 17 17 17 16 17 16 15 17 21 23 23 24 25 26 27 28 28 29 29 27 27 27 27 27 28 28 28 28 27 27 27 26 25 25 25 25 25 25 26 25 25 26 25 25 25 24 24 24 24 23 23 23 22 22 22
Wind_Direction
218 219 220 221 223 225 228 230 232 234 236 239 243 247 251 255 259 264 269 272 274 275 278 280 281 282 283 281 279 277 277 276 276 275 272 270 267 263 262 255 244 247 268 276 279 283 288 296 303 306 310 313 313 316 319 321 324 327 329 329 328 328 328
219 219 221 222 225 227 230 233 234 237 239 241 244 247 251 255 259 264 268 271 274 277 279 280 280 282 284 283 280 278 278 277 275 274 273 271 269 268 268 262 254 253 266 279 283 285 290 296 300 303 307 310 310 313 318 321 323 327 327 326 325 324 325
220 220 222 224 227 229 232 234 237 239 241 243 245 248 252 255 259 263 266 270 274 277 279 280 281 283 284 283 282 280 279 278 276 274 274 274 272 271 272 270 263 259 262 274 284 286 288 294 298 300 304 308 309 311 316 318 321 325 325 324 322 320 321
220 221 223 226 229 232 234 236 238 240 242 244 247 249 253 256 259 262 265 270 274 278 280 281 282 284 285 283 282 281 280 278 277 276 277 277 275 273 275 274 269 265 264 271 280 284 285 291 296 298 303 308 308 310 314 315 318 322 321 320 319 317 317
219 222 225 229 232 235 237 239 240 242 244 245 248 252 255 257 259 262 265 270 274 278 280 282 283 284 284 283 282 282 282 280 280 280 278 278 277 276 277 276 274 271 269 268 273 281 287 291 294 298 301 306 307 309 313 314 315 318 317 316 317 315 314
221 225 229 232 235 237 239 241 243 244 246 248 250 253 256 258 260 262 267 271 275 278 281 282 284 284 284 282 282 283 283 283 282 281 279 279 278 278 278 276 275 275 273 270 271 279 287 290 293 297 299 303 306 307 309 312 314 314 313 312 314 314 314
224 228 231 235 237 239 242 244 246 247 249 250 252 254 256 258 261 264 269 272 275 278 281 282 283 284 283 283 283 283 283 283 283 282 281 280 279 278 276 274 275 276 273 272 273 278 284 288 292 293 294 300 306 304 302 307 311 311 310 310 310 311 312
227 231 234 236 239 242 245 247 248 250 251 252 254 255 256 259 262 266 270 273 276 279 280 282 282 283 283 283 283 283 283 283 283 282 281 279 278 276 273 272 274 274 272 271 273 276 281 287 290 291 293 298 303 300 299 305 307 305 305 308 308 308 309
230 233 235 238 241 244 247 250 252 253 254 255 256 257 259 262 265 269 271 273 276 278 279 280 281 281 282 282 282 282 282 283 283 281 279 279 278 273 271 271 271 270 269 269 270 274 281 286 286 287 292 294 293 293 296 302 302 299 300 304 306 306 309
230 233 236 239 242 246 249 252 255 256 257 258 260 261 262 264 266 268 271 273 276 278 279 280 281 282 283 284 284 283 283 284 284 281 279 278 277 272 269 269 268 266 266 266 267 272 277 280 280 283 286 288 289 293 296 300 300 298 300 304 304 305 310
230 234 237 241 244 248 252 254 257 258 260 262 264 266 266 267 269 271 273 276 279 280 282 284 284 286 287 288 287 286 286 286 285 282 280 278 275 272 269 266 265 266 266 265 266 270 272 273 277 281 285 287 289 293 295 297 297 294 295 299 298 299 305
231 235 238 242 246 250 253 257 259 260 262 263 264 264 266 271 274 276 277 279 280 281 283 284 284 285 285 285 285 285 286 286 285 283 281 277 274 271 269 266 264 264 264 265 267 271 271 271 276 281 284 285 288 292 294 294 293 290 286 285 280 279 288
233 236 239 243 247 252 256 259 261 262 262 263 262 258 255 260 266 269 271 273 275 276 278 278 279 279 279 280 279 280 280 280 280 278 273 268 266 264 262 262 261 261 263 265 268 272 271 270 274 278 279 281 286 289 290 289 286 285 281 276 273 275 282
234 237 241 245 249 254 258 261 262 262 261 260 261 258 252 253 257 260 263 266 268 270 271 273 275 276 277 277 274 272 270 270 270 270 269 266 265 265 263 263 264 264 265 265 265 267 269 269 271 273 276 281 284 283 284 283 280 280 279 276 276 279 283
235 239 243 247 251 255 259 261 262 262 262 261 261 259 255 254 255 256 258 261 263 266 268 269 269 268 268 269 267 266 266 268 269 271 272 272 271 271 270 268 268 269 269 271 269 268 270 271 272 274 278 284 286 285 286 282 277 276 277 279 284 284 285
236 240 244 248 252 255 259 262 264 264 263 264 264 260 254 253 254 254 255 257 259 262 265 265 263 263 264 266 267 269 270 272 274 274 274 274 273 273 273 273 275 277 277 275 274 274 277 278 281 284 286 287 289 290 288 281 272 272 277 285 290 288 287
237 242 247 250 252 255 260 264 266 267 266 266 266 262 256 255 257 257 259 261 263 266 268 268 267 266 267 268 270 274 276 277 277 274 272 272 273 273 274 276 280 283 281 277 273 272 275 277 278 277 275 273 273 273 277 282 282 282 285 290 292 287 287
240 244 249 251 253 257 262 265 268 270 270 269 270 266 260 259 261 261 263 266 268 269 270 270 270 270 269 271 275 278 279 278 275 273 272 273 274 274 273 276 281 284 283 282 280 277 277 276 274 271 267 265 263 260 264 276 284 285 286 285 281 282 289
242 246 249 252 256 259 264 267 270 272 274 275 276 271 264 261 263 264 266 268 269 271 271 271 272 272 270 272 276 279 278 274 267 267 268 270 272 272 271 275 280 282 283 283 283 282 281 280 278 277 275 273 272 270 269 273 277 280 279 276 273 276 285
242 246 250 254 258 262 266 270 272 275 279 281 279 275 266 260 259 261 264 265 265 268 272 273 273 272 271 272 275 276 275 268 260 262 266 267 267 268 272 278 282 282 282 281 280 279 279 279 279 280 279 279 279 279 278 276 276 275 273 270 268 268 265
242 246 251 256 261 266 269 272 275 278 282 282 281 279 272 264 262 262 261 261 261 265 269 272 272 272 273 275 276 275 274 267 261 262 265 265 265 267 274 281 281 280 278 276 276 278 279 279 280 280 280 280 280 280 280 278 276 274 272 268 264 262 257
241 246 253 258 263 268 270 274 278 281 282 282 282 281 276 270 268 265 260 259 260 264 268 271 273 276 279 280 280 279 275 266 261 262 262 263 266 269 273 274 273 274 276 276 277 279 279 278 278 278 278 279 279 280 280 279 279 279 276 271 265 260 257
240 247 255 261 266 270 273 277 281 283 283 282 282 282 278 272 267 263 258 257 259 263 268 271 274 276 280 282 281 280 278 270 266 266 265 265 267 270 271 271 271 272 274 275 277 277 277 276 277 277 277 278 278 280 282 283 283 283 279 274 268 264 262
241 247 255 263 268 273 277 281 284 286 286 285 285 284 280 274 268 265 261 259 261 264 268 271 275 278 281 282 280 280 280 277 273 270 269 268 269 270 270 269 268 268 269 271 272 272 273 274 275 275 276 278 281 284 286 286 285 284 281 276 271 268 267
242 248 254 262 268 274 280 284 286 288 288 287 286 285 282 278 274 269 264 261 262 265 268 272 276 279 280 279 279 278 277 276 274 273 272 271 270 270 268 266 265 266 267 267 267 268 270 272 275 277 279 283 286 287 286 285 283 283 282 279 276 273 270
243 249 255 260 266 274 281 286 287 288 288 288 288 288 286 282 279 273 267 263 263 266 269 271 274 276 276 276 276 276 275 275 275 275 275 273 270 268 266 265 264 264 263 262 263 266 269 273 277 281 283 285 285 283 282 282 282 281 281 280 278 275 273
242 248 254 259 266 273 280 285 287 287 287 288 290 291 289 284 281 277 272 268 268 268 270 273 275 277 277 276 276 275 274 275 275 274 273 272 270 269 267 265 264 262 261 262 264 267 270 275 279 281 282 282 281 280 280 281 281 279 278 279 279 275 272
244 250 256 261 266 272 277 280 283 285 286 289 292 293 290 286 284 283 279 276 277 278 280 282 282 281 279 277 275 274 274 273 273 272 271 271 271 271 269 267 264 262 260 262 265 267 270 274 276 278 279 280 279 278 280 281 280 276 276 278 276 270 268
253 259 265 266 267 268 269 273 280 285 288 290 291 290 288 287 287 287 286 285 287 288 286 284 281 279 277 275 274 273 274 274 274 273 273 273 272 271 268 264 261 259 260 264 266 266 268 271 273 275 277 277 277 276 278 280 279 276 276 275 269 263 264
262 267 271 270 270 269 268 272 279 285 286 286 287 287 287 287 287 285 283 283 284 282 277 275 273 272 271 271 270 270 271 273 273 273 274 274 273 270 267 263 260 261 265 268 268 266 267 268 270 271 273 273 273 275 277 279 278 275 274 269 262 261 263
268 270 270 269 271 273 274 275 279 282 282 284 286 287 286 285 284 280 276 275 276 273 269 268 269 270 269 268 267 267 268 270 271 271 272 273 272 270 266 262 262 266 270 270 268 267 267 266 266 267 269 270 271 273 275 276 275 273 269 264 260 260 263
269 270 270 270 272 273 275 277 280 282 284 286 288 288 286 282 277 274 272 271 270 267 266 266 266 268 268 267 266 267 268 270 270 270 270 270 269 268 266 264 267 273 274 270 268 266 265 264 264 264 265 267 268 269 270 270 270 267 265 263 261 260 262
270 272 274 274 273 273 274 276 279 281 283 284 284 284 281 278 274 273 272 270 266 264 264 264 264 265 267 267 266 268 270 270 270 270 270 269 267 267 269 270 274 277 274 269 267 266 264 264 264 263 264 265 265 265 265 265 265 264 263 262 262 261 263
273 276 278 278 276 274 272 272 275 279 280 280 279 277 277 278 277 275 271 266 260 260 262 263 264 265 266 267 267 269 270 270 271 271 270 269 269 270 272 275 276 274 270 269 268 265 263 263 263 262 262 263 263 263 263 262 262 262 261 259 260 263 264
281 282 283 282 281 280 278 277 279 280 280 277 274 274 276 277 276 273 270 265 260 259 260 261 263 265 267 268 269 269 270 270 271 271 270 270 270 271 274 275 275 272 271 270 268 265 264 264 264 262 261 262 261 261 260 260 260 260 259 258 260 262 264
286 288 286 285 284 284 285 286 285 284 281 277 274 274 274 270 268 268 269 268 265 264 263 263 264 266 268 269 269 270 271 270 270 271 271 271 271 272 273 273 272 272 272 271 268 266 266 264 263 262 261 260 260 259 258 260 261 261 260 260 261 261 263
Height
845 847 849 851 852 854 855 856 857 858 859 860 860 860 860 860 860 860 860 860 860 860 860 859 859 859 859 859 859 858 858 858 858 857 856 856 855 855 855 854 855 851 842 839 842 841 839 839 837 833 832 831 828 827 827 825 824 823 821 819 817 815 814
842 844 846 848 849 851 852 853 855 856 856 857 857 857 857 857 857 857 857 857 857 857 857 856 856 856 856 856 856 855 855 855 855 854 853 853 852 851 852 851 850 849 843 837 837 838 836 836 835 832 830 829 826 824 823 822 821 820 819 817 815 813 812
839 841 843 844 846 848 849 850 852 853 853 854 854 854 854 854 854 854 854 854 854 854 854 853 853 853 853 853 852 852 852 851 851 851 850 850 849 849 848 848 847 846 842 836 833 834 834 833 832 830 827 826 824 822 821 819 818 817 816 815 813 811 810
837 838 840 841 843 845 846 847 848 849 850 850 851 851 851 851 851 851 850 850 850 850 850 850 849 849 850 850 849 848 848 848 848 848 847 846 846 846 845 845 845 842 841 837 831 830 831 831 829 827 825 824 821 820 819 817 816 815 813 812 810 809 807
834 835 837 838 840 841 843 844 845 845 846 847 847 847 847 847 847 847 847 847 847 846 846 846 846 846 846 846 845 845 845 845 845 844 844 843 842 843 842 841 841 839 838 836 831 827 827 828 826 824 822 822 819 817 815 814 813 812 811 809 807 805 805
832 833 834 836 837 838 839 840 841 842 842 843 843 844 844 844 844 844 843 843 843 843 843 842 842 842 842 842 841 841 841 841 841 841 840 840 839 839 839 838 837 836 835 833 829 826 824 824 823 821 819 819 819 816 813 811 809 809 809 808 804 801 801
829 830 832 833 834 835 836 837 837 838 839 840 840 840 840 840 840 840 840 840 839 839 839 838 838 838 838 838 838 838 838 838 838 837 837 836 836 836 836 835 834 833 832 830 827 825 822 820 820 819 816 816 816 815 812 810 808 805 806 806 803 799 797
826 828 829 830 831 832 833 833 834 834 835 836 836 837 837 837 837 837 836 836 836 836 836 835 835 835 834 835 834 834 835 834 834 834 833 833 833 833 833 832 831 830 829 827 825 822 821 819 817 816 814 814 814 812 811 810 808 805 803 803 800 796 795
823 825 826 827 828 829 829 829 830 831 832 833 833 833 833 833 834 833 833 833 832 832 832 832 831 831 831 831 831 831 831 831 831 831 830 830 830 830 830 829 828 827 826 825 822 820 819 817 814 813 813 812 812 811 809 808 807 804 802 801 797 793 792
820 821 823 824 825 826 826 826 827 828 829 829 829 829 830 830 830 830 829 829 829 828 828 828 828 827 827 827 827 827 827 827 828 827 826 827 827 827 827 826 825 824 822 822 819 817 817 814 811 810 811 810 809 809 807 806 805 802 800 800 795 790 788
817 818 819 821 821 822 823 823 824 825 825 826 826 826 826 826 826 826 826 825 825 825 824 824 824 823 823 823 823 824 824 824 824 823 823 823 823 823 823 823 821 820 819 818 816 814 814 812 807 807 809 807 806 806 805 804 803 801 799 798 795 790 787
814 815 816 817 818 819 819 819 820 821 822 822 823 823 822 822 823 822 822 822 822 822 821 821 821 820 820 820 820 820 820 820 819 819 819 819 819 819 819 818 818 816 815 815 813 810 810 809 805 803 805 805 804 803 803 801 800 799 797 796 794 790 786
810 811 813 814 814 815 815 816 817 818 818 819 819 820 820 820 820 819 819 819 819 819 819 818 818 818 817 817 817 817 817 816 816 816 816 816 816 815 815 815 814 813 812 812 810 806 804 805 804 801 801 802 802 801 800 798 796 795 794 792 790 787 784
807 808 809 810 811 811 812 812 813 814 815 815 816 817 817 817 817 816 816 816 815 815 815 815 815 814 814 814 814 814 814 814 813 813 813 813 812 811 811 811 810 809 808 808 807 803 799 800 801 798 797 799 800 798 796 794 792 791 790 788 786 784 781
803 804 805 806 807 807 808 808 809 810 811 812 812 813 814 814 813 813 812 812 812 811 811 811 811 811 810 810 810 811 811 810 810 809 808 807 806 806 805 805 804 803 803 802 801 798 795 795 797 795 794 795 795 793 792 791 789 788 787 785 782 780 778
800 801 802 802 803 803 804 804 805 806 807 808 809 809 810 809 809 808 808 807 807 807 807 807 807 806 806 806 806 806 806 806 806 805 804 802 801 800 799 798 797 798 797 796 795 794 792 791 791 791 791 791 791 790 789 788 787 786 785 782 779 775 775
796 797 798 799 799 799 800 801 802 803 804 805 806 806 806 805 804 804 803 802 802 803 802 802 802 802 801 801 801 801 802 802 801 800 799 797 796 795 793 791 792 792 792 792 791 790 789 788 788 788 788 788 788 788 787 785 783 783 782 780 776 772 770
793 794 794 795 795 796 797 797 798 799 800 801 802 802 802 801 800 800 798 797 798 798 798 797 797 797 797 796 796 797 797 798 797 796 795 794 792 790 788 786 787 788 787 786 786 785 785 784 783 783 783 783 783 783 783 781 779 779 779 778 775 770 767
789 790 790 791 792 793 793 794 795 795 796 797 798 798 798 797 796 795 794 793 793 793 793 792 792 793 793 792 793 793 793 794 794 792 791 791 789 786 783 783 784 784 782 781 780 779 779 778 778 778 777 777 777 778 778 777 776 776 776 773 771 770 768
785 786 787 788 789 790 790 790 791 792 792 793 794 794 793 793 792 791 790 789 789 789 788 788 787 788 788 789 789 789 789 790 790 789 788 787 785 781 779 780 781 780 778 777 776 775 774 773 772 772 772 771 771 771 772 772 771 771 771 769 767 767 767
782 783 784 785 785 786 786 786 787 788 788 788 789 789 789 788 787 786 786 785 785 785 784 783 783 783 784 785 785 785 785 785 785 785 784 783 781 779 778 778 777 776 775 774 772 771 770 768 767 767 766 765 765 765 765 766 766 766 766 765 763 762 761
778 779 780 781 782 781 782 782 783 784 784 784 784 784 784 783 782 782 782 781 780 780 779 778 779 779 780 781 781 781 781 781 781 781 780 778 777 776 776 776 774 772 772 770 768 767 765 763 763 762 761 760 759 759 760 760 760 760 760 759 758 757 756
775 776 776 777 777 777 778 778 779 780 780 780 779 779 779 778 778 778 778 777 776 775 775 775 775 775 776 777 777 776 776 776 776 776 774 773 773 772 772 771 770 769 768 766 765 763 760 758 758 757 756 755 754 755 755 755 755 755 755 754 753 753 752
771 772 773 773 773 773 773 774 774 775 775 775 775 775 775 775 774 774 774 773 772 771 772 771 772 772 772 773 772 772 772 771 771 770 769 769 769 768 768 767 766 765 764 763 761 758 755 753 752 752 751 751 751 751 751 751 750 750 750 749 748 748 748
768 769 769 769 769 769 769 770 770 770 771 771 771 771 771 771 770 770 770 769 768 768 768 768 768 768 768 768 768 768 767 766 765 765 764 764 764 764 763 763 762 761 760 758 756 754 751 748 748 748 747 747 747 747 746 746 746 745 745 745 744 743 743
765 765 766 766 765 765 765 766 765 765 766 766 767 767 767 767 766 766 766 766 765 765 765 765 765 765 764 764 763 763 762 760 760 760 759 759 759 759 758 758 757 757 756 753 751 749 747 745 744 744 744 744 743 743 742 742 742 741 740 740 740 739 737
762 762 762 762 762 762 762 762 761 761 761 762 762 763 763 763 763 763 763 762 762 762 762 761 761 760 759 759 758 758 757 756 755 755 754 754 754 753 753 753 753 752 751 749 747 745 743 742 741 741 740 740 739 738 738 738 738 737 736 736 736 734 732
758 759 759 759 759 759 758 758 757 757 757 758 758 759 759 759 759 759 758 758 758 758 757 756 756 754 754 754 753 752 752 751 750 750 749 749 749 749 748 749 748 747 746 744 743 741 739 739 738 737 736 736 736 734 734 735 735 734 732 733 733 731 728
755 755 756 756 756 756 755 754 753 754 754 755 755 755 755 755 755 754 754 754 754 754 753 752 750 749 748 748 747 747 746 745 745 745 744 744 744 744 744 744 743 742 740 739 739 737 736 735 735 734 733 733 732 731 731 731 731 730 729 730 729 727 724
752 753 753 752 752 752 752 750 750 751 752 751 751 752 751 751 751 751 750 750 751 750 749 747 746 745 744 744 743 742 741 741 740 740 739 738 739 739 739 739 738 737 736 735 734 733 733 732 732 730 730 730 728 727 727 728 728 727 726 726 725 723 721
749 750 750 749 748 748 748 747 747 748 748 748 748 748 747 747 748 748 747 748 748 747 745 743 741 740 739 739 738 737 737 736 736 735 734 734 734 734 734 734 733 732 731 730 730 729 729 729 728 727 727 726 725 724 724 724 724 724 723 722 721 719 717
745 746 746 746 746 745 744 744 744 744 744 744 744 744 744 744 744 744 744 744 744 742 739 738 737 735 735 735 734 733 733 732 732 731 731 730 730 729 729 729 728 727 727 726 725 725 725 725 724 724 723 723 722 721 721 721 720 720 719 718 717 716 714
742 742 742 743 743 742 741 741 741 741 741 740 740 740 740 740 740 740 740 740 739 737 734 733 733 731 730 730 729 728 729 728 727 727 727 726 726 725 724 724 724 723 723 722 721 721 721 721 721 720 720 719 719 718 718 717 716 716 716 715 713 712 711
740 740 739 739 739 739 738 738 738 738 737 737 736 736 736 736 735 735 735 735 734 732 730 729 728 727 726 725 725 725 725 724 723 723 722 722 721 721 720 720 720 719 719 718 718 718 717 717 717 717 716 716 715 715 714 713 713 712 712 711 710 708 707
736 736 736 736 735 735 735 735 735 734 733 733 733 732 733 732 731 729 729 729 728 727 725 725 724 722 721 721 721 721 721 720 719 719 718 717 717 716 716 716 715 715 714 714 714 714 713 713 713 713 713 712 712 711 710 709 709 708 708 707 706 705 704
732 732 732 732 732 731 731 731 731 730 730 729 729 729 729 729 727 725 724 724 723 722 721 720 720 718 718 717 717 717 716 716 715 714 714 713 713 713 712 711 711 711 710 710 710 709 709 709 709 709 709 708 707 707 706 705 704 704 704 703 703 702 701